| time (UTC) | temp F | wind direction | speed MPH | gust MPH | rain 1hr in | rain 24hr in | rain mn in | humidity % | barometer mb |
| 20260903130609 | 69 | 197 | 1.0 | 2.0 | 0.00 | 0.17 | 0.17 | 97 | 1015.4 |
| 20260903125601 | 69 | 168 | 1.0 | 1.0 | 0.00 | 0.17 | 0.17 | 98 | 1015.5 |
| 20260903125056 | 69 | 212 | 1.0 | 2.0 | 0.00 | 0.17 | 0.17 | 97 | 1015.4 |
| 20260903124556 | 69 | 184 | 1.0 | 1.0 | 0.00 | 0.17 | 0.17 | 98 | 1015.5 |
| 20260903124051 | 68 | 175 | 1.0 | 1.0 | 0.00 | 0.17 | 0.17 | 99 | 1015.5 |
| 20260903123550 | 68 | 173 | 0.0 | 0.0 | 0.00 | 0.17 | 0.17 | 99 | 1015.5 |
| 20260903123049 | 68 | 149 | 0.0 | 0.0 | 0.00 | 0.17 | 0.17 | 99 | 1015.6 |
| 20260903122548 | 68 | 149 | 0.0 | 0.0 | 0.00 | 0.17 | 0.17 | 99 | 1015.4 |
| 20260903122043 | 67 | 149 | 1.0 | 1.0 | 0.00 | 0.17 | 0.17 | 99 | 1015.6 |
| 20260903121542 | 67 | 192 | 1.0 | 2.0 | 0.00 | 0.17 | 0.17 | 99 | 1015.5 |
| 20260903121038 | 67 | 172 | 0.0 | 0.0 | 0.00 | 0.17 | 0.17 | 99 | 1015.4 |
| 20260903120537 | 67 | 172 | 0.0 | 0.0 | 0.00 | 0.17 | 0.17 | 99 | 1015.2 |
| 20260903120032 | 67 | 171 | 1.0 | 1.0 | 0.00 | 0.17 | 0.17 | 99 | 1015.1 |
| 20260903115531 | 66 | 170 | 0.0 | 1.0 | 0.00 | 0.17 | 0.17 | 99 | 1015.2 |
| 20260903115026 | 66 | 136 | 0.0 | 0.0 | 0.00 | 0.17 | 0.17 | 99 | 1015.1 |
| 20260903114521 | 65 | 136 | 0.0 | 0.0 | 0.00 | 0.17 | 0.17 | 99 | 1015.2 |
| 20260903114017 | 65 | 136 | 0.0 | 0.0 | 0.00 | 0.17 | 0.17 | 99 | 1015.1 |
| 20260903113512 | 65 | 136 | 0.0 | 0.0 | 0.00 | 0.17 | 0.17 | 99 | 1015.0 |
| 20260903113009 | 64 | 136 | 0.0 | 0.0 | 0.00 | 0.17 | 0.17 | 99 | 1014.9 |
| 20260903112504 | 64 | 135 | 0.0 | 0.0 | 0.00 | 0.17 | 0.17 | 99 | 1014.8 |
| 20260903112004 | 64 | 135 | 0.0 | 0.0 | 0.00 | 0.17 | 0.17 | 99 | 1014.8 |
| 20260903111502 | 65 | 136 | 0.0 | 0.0 | 0.00 | 0.17 | 0.17 | 99 | 1014.8 |
| 20260903110954 | 65 | 136 | 0.0 | 0.0 | 0.00 | 0.17 | 0.17 | 99 | 1014.9 |
| 20260903110449 | 65 | 146 | 0.0 | 0.0 | 0.07 | 0.17 | 0.17 | 99 | 1014.7 |
| 20260903105948 | 65 | 118 | 0.0 | 1.0 | 0.07 | 0.17 | 0.17 | 99 | 1014.6 |
| 20260903105444 | 65 | 118 | 2.0 | 2.0 | 0.00 | 0.16 | 0.16 | 99 | 1014.8 |
| 20260903104944 | 65 | 137 | 0.0 | 0.0 | 0.00 | 0.16 | 0.16 | 99 | 1014.8 |
| 20260903104443 | 65 | 138 | 1.0 | 1.0 | 0.00 | 0.16 | 0.16 | 99 | 1014.8 |
| 20260903103940 | 65 | 111 | 1.0 | 1.0 | 0.00 | 0.16 | 0.16 | 99 | 1014.7 |
| 20260903103435 | 65 | 110 | 0.0 | 0.0 | 0.00 | 0.16 | 0.16 | 99 | 1014.7 |
| 20260903102931 | 65 | 144 | 0.0 | 1.0 | 0.00 | 0.16 | 0.16 | 99 | 1014.9 |
| 20260903102426 | 65 | 137 | 0.0 | 1.0 | 0.00 | 0.16 | 0.16 | 99 | 1014.7 |
| 20260903101925 | 65 | 157 | 0.0 | 1.0 | 0.00 | 0.16 | 0.16 | 99 | 1014.7 |
| 20260903101420 | 64 | 165 | 0.0 | 0.0 | 0.00 | 0.16 | 0.16 | 99 | 1014.9 |
| 20260903100915 | 64 | 104 | 1.0 | 1.0 | 0.00 | 0.16 | 0.16 | 99 | 1014.9 |
| 20260903100411 | 64 | 136 | 0.0 | 0.0 | 0.00 | 0.16 | 0.16 | 99 | 1014.8 |
| 20260903095908 | 64 | 157 | 0.0 | 1.0 | 0.00 | 0.16 | 0.16 | 99 | 1015.0 |
| 20260903095402 | 64 | 145 | 1.0 | 1.0 | 0.00 | 0.16 | 0.16 | 99 | 1015.1 |
| 20260903094858 | 64 | 124 | 0.0 | 0.0 | 0.00 | 0.16 | 0.16 | 99 | 1014.9 |
| 20260903094357 | 64 | 162 | 1.0 | 2.0 | 0.00 | 0.16 | 0.16 | 99 | 1014.7 |
| 20260903093853 | 64 | 152 | 0.0 | 0.0 | 0.00 | 0.16 | 0.16 | 99 | 1015.0 |
| 20260903093348 | 64 | 152 | 0.0 | 0.0 | 0.00 | 0.16 | 0.16 | 99 | 1014.8 |
| 20260903092844 | 64 | 192 | 1.0 | 2.0 | 0.00 | 0.16 | 0.16 | 99 | 1014.7 |
| 20260903092343 | 64 | 137 | 0.0 | 1.0 | 0.00 | 0.16 | 0.16 | 99 | 1014.9 |
| 20260903091842 | 64 | 113 | 3.0 | 3.0 | 0.00 | 0.16 | 0.16 | 99 | 1015.0 |
| 20260903091342 | 64 | 167 | 1.0 | 1.0 | 0.00 | 0.16 | 0.16 | 99 | 1015.2 |
| 20260903090837 | 64 | 300 | 0.0 | 0.0 | 0.00 | 0.16 | 0.16 | 99 | 1015.0 |
| 20260903090332 | 64 | 300 | 0.0 | 0.0 | 0.00 | 0.16 | 0.16 | 99 | 1015.1 |
| 20260903085830 | 64 | 301 | 0.0 | 0.0 | 0.00 | 0.16 | 0.16 | 99 | 1015.1 |
| 20260903085330 | 64 | 321 | 0.0 | 0.0 | 0.00 | 0.16 | 0.16 | 99 | 1014.9 |
| 20260903084829 | 64 | 321 | 0.0 | 0.0 | 0.00 | 0.16 | 0.16 | 99 | 1014.8 |
| 20260903084328 | 64 | 321 | 0.0 | 0.0 | 0.00 | 0.16 | 0.16 | 99 | 1014.7 |
| 20260903083823 | 64 | 321 | 0.0 | 0.0 | 0.00 | 0.16 | 0.16 | 99 | 1014.7 |
| 20260903083319 | 64 | 170 | 0.0 | 0.0 | 0.00 | 0.16 | 0.16 | 99 | 1014.7 |
| 20260903082818 | 64 | 170 | 0.0 | 1.0 | 0.00 | 0.16 | 0.16 | 99 | 1014.7 |
| 20260903082313 | 64 | 171 | 1.0 | 2.0 | 0.00 | 0.16 | 0.16 | 99 | 1014.8 |
| 20260903081808 | 64 | 129 | 1.0 | 1.0 | 0.12 | 0.16 | 0.16 | 99 | 1014.9 |
| 20260903081304 | 64 | 129 | 0.0 | 0.0 | 0.17 | 0.16 | 0.16 | 99 | 1014.9 |
| 20260903080801 | 64 | 129 | 0.0 | 0.0 | 0.05 | 0.14 | 0.14 | 99 | 1014.8 |
| 20260903080257 | 64 | 128 | 0.0 | 0.0 | 0.00 | 0.13 | 0.13 | 99 | 1015.0 |
| 20260903075756 | 64 | 129 | 1.0 | 2.0 | 0.00 | 0.13 | 0.13 | 99 | 1014.9 |
| 20260903075252 | 64 | 116 | 1.0 | 1.0 | 0.00 | 0.13 | 0.13 | 99 | 1014.9 |
| 20260903074750 | 64 | 126 | 0.0 | 0.0 | 0.00 | 0.13 | 0.13 | 99 | 1015.1 |
| 20260903074246 | 64 | 125 | 0.0 | 0.0 | 0.00 | 0.13 | 0.13 | 99 | 1015.0 |
| 20260903073741 | 64 | 123 | 0.0 | 0.0 | 0.00 | 0.13 | 0.13 | 99 | 1014.7 |
| 20260903073236 | 64 | 162 | 1.0 | 1.0 | 0.00 | 0.13 | 0.13 | 99 | 1015.2 |
| 20260903072732 | 64 | 125 | 0.0 | 1.0 | 0.00 | 0.13 | 0.13 | 99 | 1015.3 |
| 20260903072228 | 64 | 265 | 1.0 | 1.0 | 0.00 | 0.13 | 0.13 | 99 | 1015.0 |
| 20260903071725 | 64 | 206 | 1.0 | 2.0 | 0.00 | 0.13 | 0.13 | 99 | 1015.0 |
| 20260903071221 | 64 | 184 | 3.0 | 3.0 | 0.00 | 0.13 | 0.13 | 99 | 1015.0 |
| 20260903070720 | 64 | 217 | 2.0 | 2.0 | 0.00 | 0.13 | 0.13 | 99 | 1015.1 |
| 20260903070216 | 64 | 89 | 1.0 | 2.0 | 0.00 | 0.13 | 0.13 | 99 | 1015.1 |
| 20260903065712 | 64 | 142 | 0.0 | 1.0 | 0.00 | 0.13 | 0.13 | 99 | 1014.9 |
| 20260903065210 | 64 | 159 | 1.0 | 2.0 | 0.00 | 0.13 | 0.13 | 99 | 1015.0 |
| 20260903064710 | 64 | 179 | 1.0 | 1.0 | 0.00 | 0.13 | 0.13 | 99 | 1015.0 |
| 20260903064205 | 64 | 179 | 0.0 | 0.0 | 0.00 | 0.13 | 0.13 | 99 | 1015.2 |
| 20260903063701 | 64 | 169 | 2.0 | 2.0 | 0.00 | 0.13 | 0.13 | 99 | 1015.0 |
| 20260903063201 | 64 | 193 | 1.0 | 1.0 | 0.00 | 0.13 | 0.13 | 99 | 1015.1 |
| 20260903062657 | 65 | 199 | 0.0 | 1.0 | 0.00 | 0.13 | 0.13 | 99 | 1015.1 |
| 20260903062152 | 65 | 118 | 1.0 | 2.0 | 0.00 | 0.13 | 0.13 | 99 | 1015.3 |
| 20260903061648 | 65 | 304 | 2.0 | 2.0 | 0.00 | 0.13 | 0.13 | 99 | 1015.3 |
| 20260903061146 | 65 | 123 | 2.0 | 2.0 | 0.00 | 0.13 | 0.13 | 99 | 1015.3 |
| 20260903060642 | 65 | 355 | 2.0 | 3.0 | 0.00 | 0.13 | 0.13 | 99 | 1015.3 |
| 20260903060137 | 65 | 205 | 2.0 | 2.0 | 0.00 | 0.13 | 0.13 | 99 | 1015.4 |
| 20260903055634 | 65 | 127 | 0.0 | 0.0 | 0.00 | 0.13 | 0.13 | 99 | 1015.3 |
| 20260903055133 | 65 | 237 | 2.0 | 2.0 | 0.00 | 0.13 | 0.13 | 99 | 1015.7 |
| 20260903054628 | 65 | 279 | 2.0 | 2.0 | 0.00 | 0.13 | 0.13 | 99 | 1015.6 |
| 20260903054123 | 65 | 74 | 0.0 | 0.0 | 0.00 | 0.13 | 0.13 | 99 | 1015.5 |
| 20260903053619 | 65 | 80 | 0.0 | 1.0 | 0.00 | 0.13 | 0.13 | 99 | 1015.3 |
| 20260903053115 | 65 | 152 | 0.0 | 1.0 | 0.00 | 0.13 | 0.13 | 99 | 1015.4 |
| 20260903052611 | 65 | 105 | 2.0 | 3.0 | 0.00 | 0.13 | 0.13 | 99 | 1015.3 |
| 20260903052106 | 65 | 87 | 0.0 | 0.0 | 0.00 | 0.13 | 0.13 | 99 | 1015.2 |
| 20260903051601 | 65 | 131 | 2.0 | 4.0 | 0.00 | 0.13 | 0.13 | 99 | 1015.7 |
| 20260903051056 | 65 | 152 | 1.0 | 2.0 | 0.00 | 0.13 | 0.13 | 99 | 1015.7 |
| 20260903050555 | 65 | 158 | 0.0 | 0.0 | 0.00 | 0.13 | 0.13 | 99 | 1015.8 |
| 20260903050051 | 65 | 107 | 2.0 | 2.0 | 0.00 | 0.13 | 0.13 | 99 | 1015.4 |
| 20260903045549 | 65 | 126 | 0.0 | 1.0 | 0.00 | 0.13 | 0.13 | 99 | 1015.6 |
| 20260903045047 | 65 | 136 | 2.0 | 2.0 | 0.07 | 0.13 | 0.13 | 99 | 1015.4 |
| 20260903044542 | 65 | 174 | 4.0 | 4.0 | 0.07 | 0.13 | 0.13 | 99 | 1015.4 |
| 20260903044037 | 65 | 243 | 1.0 | 2.0 | 0.07 | 0.12 | 0.12 | 99 | 1015.3 |
| 20260903043533 | 65 | 130 | 2.0 | 4.0 | 0.12 | 0.12 | 0.12 | 99 | 1015.5 |
| 20260903043033 | 65 | 97 | 1.0 | 2.0 | 0.17 | 0.11 | 0.11 | 99 | 1015.5 |
| 20260903042527 | 65 | 122 | 2.0 | 3.0 | 0.24 | 0.10 | 0.10 | 99 | 1015.7 |
| 20260903042023 | 66 | 128 | 1.0 | 1.0 | 0.24 | 0.08 | 0.08 | 99 | 1015.9 |
| 20260903041521 | 66 | 178 | 4.0 | 8.0 | 0.31 | 0.06 | 0.06 | 99 | 1016.2 |
| 20260903041020 | 66 | 172 | 2.0 | 3.0 | 0.24 | 0.04 | 0.04 | 99 | 1016.4 |
| 20260903040519 | 66 | 157 | 3.0 | 6.0 | 0.19 | 0.01 | 0.01 | 99 | 1016.9 |
| 20260903040016 | 66 | 59 | 1.0 | 2.0 | 0.85 | 1.40 | 1.40 | 99 | 1016.8 |
| 20260903035511 | 66 | 185 | 2.0 | 3.0 | 1.44 | 1.39 | 1.39 | 99 | 1017.3 |
| 20260903035007 | 67 | 184 | 2.0 | 4.0 | 0.92 | 1.29 | 1.29 | 99 | 1017.9 |
| 20260903034502 | 67 | 295 | 8.0 | 10.0 | 0.07 | 1.15 | 1.15 | 99 | 1018.5 |
| 20260903034001 | 67 | 280 | 3.0 | 3.0 | 0.05 | 1.14 | 1.14 | 99 | 1016.8 |
| 20260903033457 | 67 | 93 | 1.0 | 1.0 | 0.12 | 1.14 | 1.14 | 99 | 1015.3 |
| 20260903032952 | 66 | 115 | 1.0 | 1.0 | 0.07 | 1.13 | 1.13 | 99 | 1015.2 |
| 20260903032448 | 66 | 174 | 2.0 | 3.0 | 0.05 | 1.12 | 1.12 | 99 | 1015.1 |
| 20260903031943 | 66 | 110 | 0.0 | 1.0 | 0.05 | 1.12 | 1.12 | 99 | 1015.5 |
| 20260903031442 | 66 | 153 | 0.0 | 0.0 | 0.07 | 1.11 | 1.11 | 99 | 1015.8 |
| 20260903030937 | 65 | 171 | 0.0 | 0.0 | 0.12 | 1.11 | 1.11 | 99 | 1016.1 |
| 20260903030434 | 65 | 99 | 1.0 | 1.0 | 0.05 | 1.10 | 1.10 | 99 | 1016.1 |
| 20260903025929 | 65 | 79 | 1.0 | 2.0 | 0.07 | 1.09 | 1.09 | 99 | 1016.3 |
| 20260903025425 | 65 | 149 | 1.0 | 2.0 | 0.19 | 1.09 | 1.09 | 99 | 1016.4 |
| 20260903024921 | 65 | 202 | 1.0 | 1.0 | 0.12 | 1.08 | 1.08 | 99 | 1016.9 |
| 20260903024419 | 65 | 193 | 4.0 | 4.0 | 0.12 | 1.07 | 1.07 | 99 | 1017.3 |
| 20260903023914 | 65 | 191 | 1.0 | 2.0 | 0.12 | 1.06 | 1.06 | 99 | 1017.3 |
| 20260903023410 | 65 | 118 | 2.0 | 2.0 | 0.12 | 1.05 | 1.05 | 99 | 1017.4 |
| 20260903022906 | 64 | 210 | 2.0 | 2.0 | 0.19 | 1.04 | 1.04 | 99 | 1017.3 |
| 20260903022404 | 64 | 233 | 2.0 | 3.0 | 0.26 | 1.03 | 1.03 | 99 | 1017.1 |
| 20260903021903 | 64 | 148 | 0.0 | 0.0 | 0.24 | 1.01 | 1.01 | 99 | 1016.6 |
| 20260903021359 | 64 | 176 | 1.0 | 1.0 | 0.17 | 0.99 | 0.99 | 99 | 1016.6 |
| 20260903020858 | 64 | 136 | 0.0 | 1.0 | 0.17 | 0.97 | 0.97 | 99 | 1016.5 |
| 20260903020354 | 64 | 124 | 1.0 | 1.0 | 0.31 | 0.96 | 0.96 | 99 | 1017.1 |
| 20260903015848 | 64 | 130 | 0.0 | 1.0 | 0.85 | 0.94 | 0.94 | 98 | 1017.2 |
| 20260903015344 | 64 | 99 | 3.0 | 3.0 | 1.63 | 0.91 | 0.91 | 98 | 1018.3 |
| 20260903014840 | 65 | 181 | 2.0 | 2.0 | 2.72 | 0.83 | 0.83 | 97 | 1018.8 |
| 20260903014339 | 67 | 270 | 6.0 | 8.0 | 1.56 | 0.63 | 0.63 | 95 | 1020.1 |
| 20260903013834 | 68 | 268 | 10.0 | 15.0 | 0.05 | 0.38 | 0.38 | 98 | 1020.5 |
| 20260903013333 | 68 | 185 | 2.0 | 2.0 | 0.00 | 0.37 | 0.37 | 98 | 1017.5 |
| 20260903012833 | 68 | 176 | 0.0 | 0.0 | 0.00 | 0.37 | 0.37 | 98 | 1016.6 |
| 20260903012327 | 68 | 130 | 0.0 | 0.0 | 0.00 | 0.37 | 0.37 | 98 | 1016.8 |
| 20260903011826 | 68 | 144 | 1.0 | 1.0 | 0.00 | 0.37 | 0.37 | 98 | 1016.9 |
| 20260903011326 | 68 | 165 | 2.0 | 2.0 | 0.00 | 0.37 | 0.37 | 98 | 1017.3 |
| 20260903010821 | 68 | 94 | 2.0 | 2.0 | 0.00 | 0.37 | 0.37 | 98 | 1017.2 |
| 20260903010317 | 69 | 157 | 0.0 | 0.0 | 0.00 | 0.37 | 0.37 | 98 | 1016.8 |
| 20260903005815 | 69 | 77 | 1.0 | 1.0 | 0.00 | 0.37 | 0.37 | 98 | 1016.5 |
| 20260903005310 | 69 | 171 | 1.0 | 2.0 | 0.07 | 0.37 | 0.37 | 97 | 1016.2 |
| 20260903004806 | 69 | 127 | 1.0 | 2.0 | 0.07 | 0.37 | 0.37 | 97 | 1016.0 |
| 20260903004301 | 69 | 143 | 0.0 | 2.0 | 0.07 | 0.37 | 0.37 | 97 | 1016.1 |
| 20260903003757 | 69 | 143 | 2.0 | 3.0 | 0.00 | 0.36 | 0.36 | 97 | 1016.0 |
| 20260903003252 | 69 | 76 | 2.0 | 3.0 | 0.00 | 0.36 | 0.36 | 97 | 1016.0 |
| 20260903002747 | 69 | 114 | 0.0 | 1.0 | 0.00 | 0.36 | 0.36 | 97 | 1016.3 |
| 20260903002240 | 69 | 343 | 2.0 | 3.0 | 0.00 | 0.36 | 0.36 | 97 | 1016.0 |
| 20260903001736 | 69 | 40 | 1.0 | 1.0 | 0.00 | 0.36 | 0.36 | 97 | 1016.1 |
| 20260903001230 | 69 | 137 | 2.0 | 3.0 | 0.00 | 0.36 | 0.36 | 97 | 1016.3 |
| 20260903000725 | 69 | 143 | 0.0 | 0.0 | 0.00 | 0.36 | 0.36 | 97 | 1016.1 |
| 20260903000226 | 69 | 71 | 1.0 | 1.0 | 0.00 | 0.36 | 0.36 | 97 | 1016.1 |
| 20260902235724 | 69 | 147 | 1.0 | 2.0 | 0.00 | 0.36 | 0.36 | 97 | 1016.3 |
| 20260902235219 | 69 | 170 | 2.0 | 2.0 | 0.00 | 0.36 | 0.36 | 97 | 1016.6 |
| 20260902234718 | 69 | 165 | 1.0 | 1.0 | 0.00 | 0.36 | 0.36 | 97 | 1016.2 |
| 20260902234217 | 69 | 215 | 1.0 | 1.0 | 0.00 | 0.36 | 0.36 | 97 | 1016.0 |
| 20260902233717 | 69 | 169 | 2.0 | 2.0 | 0.00 | 0.36 | 0.36 | 97 | 1016.0 |
| 20260902233212 | 69 | 74 | 1.0 | 1.0 | 0.00 | 0.36 | 0.36 | 97 | 1016.1 |
| 20260902232711 | 69 | 162 | 0.0 | 1.0 | 0.00 | 0.36 | 0.36 | 97 | 1016.0 |
| 20260902232211 | 69 | 144 | 2.0 | 2.0 | 0.00 | 0.36 | 0.36 | 97 | 1016.4 |
| 20260902231705 | 69 | 130 | 0.0 | 1.0 | 0.00 | 0.36 | 0.36 | 97 | 1016.6 |
| 20260902231205 | 69 | 173 | 1.0 | 2.0 | 0.00 | 0.36 | 0.36 | 97 | 1016.4 |
| 20260902230701 | 69 | 36 | 1.0 | 2.0 | 0.00 | 0.36 | 0.36 | 97 | 1016.5 |
| 20260902230200 | 69 | 135 | 0.0 | 0.0 | 0.00 | 0.36 | 0.36 | 97 | 1016.1 |
| 20260902225655 | 69 | 344 | 2.0 | 2.0 | 0.00 | 0.36 | 0.36 | 96 | 1016.2 |
| 20260902225154 | 69 | 100 | 0.0 | 1.0 | 0.00 | 0.36 | 0.36 | 96 | 1016.0 |
| 20260902224653 | 70 | 132 | 1.0 | 1.0 | 0.00 | 0.36 | 0.36 | 96 | 1016.0 |
| 20260902224149 | 70 | 176 | 1.0 | 2.0 | 0.00 | 0.36 | 0.36 | 96 | 1016.0 |
| 20260902223645 | 70 | 65 | 1.0 | 2.0 | 0.00 | 0.36 | 0.36 | 96 | 1016.2 |
| 20260902223144 | 70 | 122 | 0.0 | 1.0 | 0.00 | 0.36 | 0.36 | 96 | 1016.2 |
| 20260902222643 | 70 | 66 | 1.0 | 2.0 | 0.00 | 0.36 | 0.36 | 96 | 1016.0 |
| 20260902222142 | 70 | 120 | 3.0 | 3.0 | 0.00 | 0.36 | 0.36 | 96 | 1015.9 |
| 20260902221636 | 70 | 142 | 0.0 | 1.0 | 0.00 | 0.36 | 0.36 | 96 | 1016.2 |
| 20260902221131 | 70 | 115 | 1.0 | 1.0 | 0.00 | 0.36 | 0.36 | 96 | 1016.0 |
| 20260902220627 | 70 | 86 | 1.0 | 1.0 | 0.00 | 0.36 | 0.36 | 96 | 1016.1 |
| 20260902220121 | 70 | 63 | 0.0 | 1.0 | 0.00 | 0.36 | 0.36 | 96 | 1016.3 |
| 20260902215617 | 70 | 97 | 1.0 | 1.0 | 0.00 | 0.36 | 0.36 | 96 | 1016.6 |
| 20260902215112 | 70 | 313 | 1.0 | 1.0 | 0.00 | 0.36 | 0.36 | 96 | 1016.6 |
| 20260902214607 | 70 | 194 | 0.0 | 0.0 | 0.00 | 0.36 | 0.36 | 96 | 1016.9 |
| 20260902214106 | 70 | 156 | 2.0 | 2.0 | 0.00 | 0.36 | 0.36 | 96 | 1016.8 |
| 20260902213602 | 70 | 191 | 1.0 | 1.0 | 0.00 | 0.36 | 0.36 | 96 | 1017.0 |
| 20260902213101 | 70 | 190 | 0.0 | 0.0 | 0.00 | 0.36 | 0.36 | 96 | 1016.8 |
| 20260902212557 | 70 | 197 | 2.0 | 2.0 | 0.00 | 0.36 | 0.36 | 96 | 1017.0 |
| 20260902212053 | 70 | 275 | 1.0 | 2.0 | 0.00 | 0.36 | 0.36 | 96 | 1017.0 |
| 20260902211549 | 70 | 200 | 1.0 | 1.0 | 0.00 | 0.36 | 0.36 | 96 | 1016.9 |
| 20260902211043 | 70 | 220 | 1.0 | 2.0 | 0.00 | 0.36 | 0.36 | 96 | 1017.3 |
| 20260902210538 | 70 | 135 | 0.0 | 0.0 | 0.00 | 0.36 | 0.36 | 95 | 1017.1 |
| 20260902210037 | 70 | 93 | 0.0 | 1.0 | 0.00 | 0.36 | 0.36 | 95 | 1017.2 |
| 20260902205537 | 71 | 121 | 0.0 | 1.0 | 0.00 | 0.36 | 0.36 | 95 | 1017.2 |
| 20260902205032 | 71 | 145 | 4.0 | 7.0 | 0.00 | 0.36 | 0.36 | 95 | 1017.0 |
| 20260902204532 | 71 | 74 | 1.0 | 2.0 | 0.00 | 0.36 | 0.36 | 95 | 1017.0 |
| 20260902204027 | 71 | 86 | 3.0 | 4.0 | 0.00 | 0.36 | 0.36 | 94 | 1016.8 |
| 20260902203523 | 71 | 200 | 2.0 | 2.0 | 0.00 | 0.36 | 0.36 | 94 | 1016.8 |
| 20260902203022 | 71 | 95 | 2.0 | 2.0 | 0.00 | 0.36 | 0.36 | 95 | 1016.9 |
| 20260902202518 | 71 | 57 | 1.0 | 1.0 | 0.00 | 0.36 | 0.36 | 95 | 1016.5 |
| 20260902202014 | 71 | 234 | 2.0 | 3.0 | 0.00 | 0.36 | 0.36 | 95 | 1016.8 |
| 20260902201509 | 71 | 107 | 3.0 | 4.0 | 0.00 | 0.36 | 0.36 | 95 | 1017.0 |
| 20260902201003 | 71 | 183 | 2.0 | 3.0 | 0.00 | 0.36 | 0.36 | 95 | 1016.5 |
| 20260902200458 | 71 | 323 | 0.0 | 1.0 | 0.00 | 0.36 | 0.36 | 95 | 1017.1 |
| 20260902195954 | 70 | 227 | 2.0 | 3.0 | 0.00 | 0.36 | 0.36 | 95 | 1017.2 |
| 20260902195450 | 70 | 175 | 1.0 | 2.0 | 0.00 | 0.36 | 0.36 | 96 | 1017.2 |
| 20260902194949 | 70 | 198 | 1.0 | 2.0 | 0.00 | 0.36 | 0.36 | 95 | 1017.1 |
| 20260902194449 | 70 | 205 | 3.0 | 4.0 | 0.00 | 0.36 | 0.36 | 95 | 1017.1 |
| 20260902193944 | 71 | 178 | 1.0 | 1.0 | 0.00 | 0.36 | 0.36 | 95 | 1017.3 |
| 20260902193440 | 71 | 163 | 2.0 | 3.0 | 0.00 | 0.36 | 0.36 | 95 | 1017.6 |
| 20260902192938 | 71 | 156 | 0.0 | 1.0 | 0.00 | 0.36 | 0.36 | 95 | 1017.7 |
| 20260902192437 | 70 | 147 | 1.0 | 1.0 | 0.00 | 0.36 | 0.36 | 95 | 1017.8 |
| 20260902191936 | 70 | 155 | 0.0 | 0.0 | 0.00 | 0.36 | 0.36 | 95 | 1017.6 |
| 20260902191432 | 70 | 169 | 1.0 | 2.0 | 0.00 | 0.36 | 0.36 | 95 | 1017.8 |
| 20260902190927 | 70 | 87 | 2.0 | 2.0 | 0.00 | 0.36 | 0.36 | 95 | 1017.8 |
| 20260902190422 | 70 | 144 | 2.0 | 2.0 | 0.00 | 0.36 | 0.36 | 96 | 1017.9 |
| 20260902185918 | 70 | 266 | 2.0 | 2.0 | 0.00 | 0.36 | 0.36 | 95 | 1017.8 |
| 20260902185414 | 70 | 85 | 0.0 | 0.0 | 0.00 | 0.36 | 0.36 | 95 | 1017.6 |
| 20260902184909 | 70 | 146 | 1.0 | 2.0 | 0.00 | 0.36 | 0.36 | 95 | 1017.9 |
| 20260902184404 | 70 | 179 | 0.0 | 1.0 | 0.00 | 0.36 | 0.36 | 95 | 1017.9 |
| 20260902183900 | 70 | 136 | 1.0 | 1.0 | 0.00 | 0.36 | 0.36 | 96 | 1018.0 |
| 20260902183356 | 70 | 100 | 0.0 | 0.0 | 0.00 | 0.36 | 0.36 | 95 | 1017.8 |
| 20260902182851 | 70 | 156 | 2.0 | 3.0 | 0.00 | 0.36 | 0.36 | 95 | 1017.8 |
| 20260902182348 | 70 | 147 | 1.0 | 2.0 | 0.00 | 0.36 | 0.36 | 95 | 1017.8 |
| 20260902181844 | 70 | 68 | 1.0 | 2.0 | 0.00 | 0.36 | 0.36 | 95 | 1017.7 |
| 20260902181340 | 70 | 93 | 1.0 | 1.0 | 0.00 | 0.36 | 0.36 | 95 | 1017.8 |
| 20260902180838 | 70 | 191 | 2.0 | 2.0 | 0.00 | 0.36 | 0.36 | 95 | 1018.1 |
| 20260902180335 | 69 | 35 | 1.0 | 1.0 | 0.00 | 0.36 | 0.36 | 96 | 1018.2 |
| 20260902175830 | 70 | 264 | 2.0 | 3.0 | 0.00 | 0.36 | 0.36 | 96 | 1018.2 |
| 20260902175325 | 70 | 163 | 2.0 | 3.0 | 0.00 | 0.36 | 0.36 | 96 | 1018.1 |
| 20260902174820 | 69 | 270 | 2.0 | 3.0 | 0.00 | 0.36 | 0.36 | 97 | 1018.2 |
| 20260902174317 | 69 | 81 | 1.0 | 2.0 | 0.00 | 0.36 | 0.36 | 96 | 1018.4 |
| 20260902173813 | 69 | 88 | 1.0 | 2.0 | 0.00 | 0.36 | 0.36 | 96 | 1018.5 |
| 20260902173307 | 69 | 147 | 2.0 | 2.0 | 0.00 | 0.36 | 0.36 | 97 | 1018.6 |
| 20260902172806 | 69 | 74 | 1.0 | 2.0 | 0.00 | 0.36 | 0.36 | 97 | 1018.4 |
| 20260902172301 | 69 | 78 | 1.0 | 1.0 | 0.00 | 0.36 | 0.36 | 97 | 1018.7 |
| 20260902171756 | 69 | 141 | 2.0 | 2.0 | 0.00 | 0.36 | 0.36 | 97 | 1018.7 |
| 20260902171251 | 69 | 90 | 0.0 | 1.0 | 0.00 | 0.36 | 0.36 | 97 | 1018.7 |
| 20260902170748 | 69 | 72 | 1.0 | 1.0 | 0.00 | 0.36 | 0.36 | 98 | 1018.7 |
| 20260902170242 | 69 | 121 | 0.0 | 1.0 | 0.00 | 0.36 | 0.36 | 98 | 1018.8 |
| 20260902165738 | 69 | 69 | 2.0 | 2.0 | 0.00 | 0.36 | 0.36 | 98 | 1018.9 |
| 20260902165232 | 69 | 127 | 1.0 | 1.0 | 0.00 | 0.36 | 0.36 | 98 | 1018.7 |
| 20260902164727 | 69 | 91 | 2.0 | 3.0 | 0.00 | 0.36 | 0.36 | 98 | 1018.7 |
| 20260902164227 | 69 | 133 | 2.0 | 2.0 | 0.00 | 0.36 | 0.36 | 99 | 1018.8 |
| 20260902163722 | 69 | 64 | 1.0 | 2.0 | 0.00 | 0.36 | 0.36 | 99 | 1018.9 |
| 20260902163221 | 69 | 106 | 0.0 | 1.0 | 0.00 | 0.36 | 0.36 | 99 | 1019.1 |
| 20260902162719 | 69 | 96 | 0.0 | 1.0 | 0.00 | 0.36 | 0.36 | 99 | 1019.1 |